When you browse on this site, cookies collect data to enhance your experience and personalize the content and advertising you see.
Visit our Privacy Policy to learn more. By continuing to use the site, you agree to this use of cookies and data.
  • en Suisse
  • Liste des pays
  • À 7 jours
  • Température de l'eau
  • Carte météo
  • Widgets météo
  • user-avatar
    Se connecter

    Météo par heure à Mizgeya

    Ce jour, 24 Août, Samedi

    Heure Température Précipitation Vent Pression Humidité
    00:00 +14°C° 0 mm 1 m/s 754 mmHg 89%
    01:00 +14°C° 0 mm 1 m/s 754 mmHg 89%
    02:00 +13°C° 0 mm 1 m/s 754 mmHg 89%
    03:00 +13°C° 0 mm 1 m/s 754 mmHg 89%
    04:00 +13°C° 0 mm 1 m/s 754 mmHg 89%
    05:00 +13°C° 0 mm 1 m/s 754 mmHg 89%
    06:00 +15°C° 0 mm 1 m/s 754 mmHg 83%
    07:00 +18°C° 0 mm 1 m/s 754 mmHg 77%
    08:00 +18°C° 0 mm 0 m/s 754 mmHg 71%
    09:00 +21°C° 0 mm 1 m/s 754 mmHg 66%
    10:00 +22°C° 0 mm 1 m/s 753 mmHg 61%
    11:00 +23°C° 0 mm 1 m/s 753 mmHg 55%
    12:00 +24°C° 0 mm 1 m/s 753 mmHg 54%
    13:00 +24°C° 0 mm 2 m/s 753 mmHg 52%
    14:00 +24°C° 0 mm 2 m/s 752 mmHg 50%
    15:00 +24°C° 0 mm 2 m/s 752 mmHg 54%
    16:00 +23°C° 0 mm 2 m/s 752 mmHg 59%
    17:00 +23°C° 0 mm 2 m/s 751 mmHg 63%
    18:00 +20°C° 0 mm 2 m/s 751 mmHg 68%
    19:00 +18°C° 0 mm 2 m/s 752 mmHg 72%
    20:00 +17°C° 0 mm 2 m/s 752 mmHg 77%
    21:00 +16°C° 0 mm 2 m/s 752 mmHg 81%
    22:00 +16°C° 0 mm 2 m/s 751 mmHg 85%
    23:00 +15°C° 0 mm 2 m/s 751 mmHg 88%

    Demain, 25 Août, Dimanche

    Heure Température Précipitation Vent Pression Humidité
    00:00 +15°C° 0 mm 2 m/s 751 mmHg 90%
    01:00 +15°C° 0 mm 2 m/s 751 mmHg 92%
    02:00 +14°C° 0 mm 2 m/s 752 mmHg 94%
    03:00 +14°C° 0 mm 2 m/s 752 mmHg 95%
    04:00 +14°C° 0 mm 2 m/s 752 mmHg 95%
    05:00 +14°C° 0 mm 2 m/s 751 mmHg 95%
    06:00 +15°C° 0 mm 2 m/s 752 mmHg 89%
    07:00 +16°C° 0 mm 3 m/s 752 mmHg 83%
    08:00 +18°C° 0 mm 3 m/s 752 mmHg 77%
    09:00 +19°C° 0 mm 3 m/s 753 mmHg 71%
    10:00 +20°C° 0 mm 3 m/s 753 mmHg 65%
    11:00 +21°C° 0 mm 3 m/s 753 mmHg 59%
    12:00 +22°C° 0 mm 3 m/s 753 mmHg 58%
    13:00 +22°C° 0 mm 3 m/s 753 mmHg 57%
    14:00 +22°C° 0 mm 3 m/s 753 mmHg 56%
    15:00 +22°C° 0 mm 3 m/s 753 mmHg 60%
    16:00 +21°C° 0 mm 3 m/s 753 mmHg 64%
    17:00 +21°C° 0 mm 2 m/s 753 mmHg 68%
    18:00 +19°C° 0 mm 2 m/s 753 mmHg 72%
    19:00 +17°C° 0 mm 2 m/s 754 mmHg 76%
    20:00 +15°C° 0 mm 2 m/s 754 mmHg 81%
    21:00 +15°C° 0 mm 1 m/s 754 mmHg 83%
    22:00 +14°C° 0 mm 1 m/s 754 mmHg 85%
    23:00 +14°C° 0 mm 1 m/s 755 mmHg 87%

    Après-demain, 26 Août, Lundi

    Heure Température Précipitation Vent Pression Humidité
    00:00 +13°C° 0 mm 1 m/s 755 mmHg 88%
    01:00 +13°C° 0 mm 1 m/s 755 mmHg 88%
    02:00 +13°C° 0 mm 1 m/s 755 mmHg 89%
    03:00 +12°C° 0 mm 1 m/s 755 mmHg 89%
    04:00 +12°C° 0 mm 1 m/s 755 mmHg 90%
    05:00 +12°C° 0 mm 1 m/s 755 mmHg 90%
    06:00 +14°C° 0 mm 1 m/s 755 mmHg 84%
    07:00 +16°C° 0 mm 1 m/s 755 mmHg 78%
    08:00 +19°C° 0 mm 1 m/s 755 mmHg 72%
    09:00 +20°C° 0 mm 1 m/s 755 mmHg 67%
    10:00 +21°C° 0 mm 1 m/s 755 mmHg 62%
    11:00 +22°C° 0 mm 1 m/s 755 mmHg 58%
    12:00 +23°C° 0 mm 1 m/s 755 mmHg 57%
    13:00 +23°C° 0 mm 1 m/s 754 mmHg 55%
    14:00 +23°C° 0 mm 2 m/s 754 mmHg 54%
    15:00 +21°C° 0 mm 2 m/s 754 mmHg 58%
    16:00 +21°C° 0 mm 2 m/s 753 mmHg 62%
    17:00 +21°C° 0 mm 2 m/s 753 mmHg 65%
    18:00 +19°C° 0 mm 2 m/s 752 mmHg 68%
    19:00 +17°C° 0 mm 2 m/s 752 mmHg 71%
    20:00 +16°C° 0 mm 2 m/s 752 mmHg 74%
    21:00 +15°C° 0 mm 2 m/s 752 mmHg 75%
    22:00 +15°C° 0 mm 2 m/s 752 mmHg 77%
    23:00 +14°C° 0 mm 2 m/s 752 mmHg 78%

    27 Août, Mardi

    Heure Température Précipitation Vent Pression Humidité
    00:00 +14°C° 0 mm 2 m/s 752 mmHg 81%
    01:00 +14°C° 0 mm 2 m/s 751 mmHg 84%
    02:00 +13°C° 0 mm 2 m/s 751 mmHg 87%
    03:00 +13°C° 0 mm 2 m/s 751 mmHg 88%
    04:00 +13°C° 0 mm 2 m/s 750 mmHg 89%
    05:00 +13°C° 0 mm 2 m/s 750 mmHg 90%
    06:00 +14°C° 0 mm 3 m/s 750 mmHg 86%
    07:00 +16°C° 0 mm 3 m/s 750 mmHg 82%
    08:00 +18°C° 0 mm 4 m/s 749 mmHg 78%
    09:00 +19°C° 0 mm 4 m/s 749 mmHg 73%
    10:00 +21°C° 0 mm 4 m/s 749 mmHg 69%
    11:00 +22°C° 0 mm 5 m/s 748 mmHg 64%
    12:00 +22°C° 0.3 mm 5 m/s 748 mmHg 67%
    13:00 +22°C° 0.3 mm 5 m/s 747 mmHg 70%
    14:00 +21°C° 0.3 mm 6 m/s 747 mmHg 72%
    15:00 +21°C° 0.1 mm 5 m/s 747 mmHg 74%
    16:00 +20°C° 0.1 mm 5 m/s 747 mmHg 76%
    17:00 +20°C° 0.1 mm 4 m/s 747 mmHg 78%
    18:00 +18°C° 0 mm 4 m/s 747 mmHg 79%
    19:00 +15°C° 0 mm 4 m/s 747 mmHg 79%
    20:00 +14°C° 0 mm 4 m/s 748 mmHg 79%
    21:00 +13°C° 0 mm 4 m/s 748 mmHg 80%
    22:00 +12°C° 0 mm 4 m/s 749 mmHg 82%
    23:00 +12°C° 0 mm 4 m/s 749 mmHg 83%

    28 Août, Mercredi

    Heure Température Précipitation Vent Pression Humidité
    00:00 +10°C° 0 mm 4 m/s 750 mmHg 84%
    01:00 +8°C° 0 mm 4 m/s 750 mmHg 85%
    02:00 +8°C° 0 mm 3 m/s 750 mmHg 86%
    03:00 +7°C° 0 mm 3 m/s 750 mmHg 86%
    04:00 +5°C° 0 mm 3 m/s 751 mmHg 85%
    05:00 +5°C° 0 mm 3 m/s 751 mmHg 85%
    06:00 +7°C° 0 mm 3 m/s 751 mmHg 79%
    07:00 +8°C° 0 mm 4 m/s 751 mmHg 74%
    08:00 +10°C° 0 mm 5 m/s 752 mmHg 68%
    09:00 +12°C° 0 mm 5 m/s 751 mmHg 64%
    10:00 +13°C° 0 mm 5 m/s 751 mmHg 59%
    11:00 +14°C° 0 mm 5 m/s 751 mmHg 55%
    12:00 +14°C° 0 mm 5 m/s 751 mmHg 53%
    13:00 +15°C° 0 mm 5 m/s 751 mmHg 51%
    14:00 +15°C° 0 mm 5 m/s 751 mmHg 49%
    15:00 +15°C° 0 mm 5 m/s 751 mmHg 53%
    16:00 +14°C° 0 mm 4 m/s 751 mmHg 57%
    17:00 +14°C° 0 mm 3 m/s 751 mmHg 61%
    18:00 +12°C° 0 mm 3 m/s 751 mmHg 64%
    19:00 +10°C° 0 mm 3 m/s 751 mmHg 68%
    20:00 +8°C° 0 mm 3 m/s 752 mmHg 71%
    21:00 +8°C° 0 mm 2 m/s 752 mmHg 73%
    22:00 +7°C° 0 mm 2 m/s 752 mmHg 74%
    23:00 +6°C° 0 mm 2 m/s 752 mmHg 76%

    29 Août, Jeudi

    Heure Température Précipitation Vent Pression Humidité
    00:00 +6°C° 0 mm 2 m/s 752 mmHg 78%
    01:00 +6°C° 0 mm 2 m/s 752 mmHg 80%
    02:00 +5°C° 0 mm 2 m/s 753 mmHg 81%
    03:00 +5°C° 0 mm 2 m/s 753 mmHg 82%
    04:00 +5°C° 0 mm 2 m/s 753 mmHg 84%
    05:00 +4°C° 0 mm 2 m/s 753 mmHg 85%
    06:00 +6°C° 0 mm 2 m/s 753 mmHg 79%
    07:00 +8°C° 0 mm 3 m/s 753 mmHg 73%
    08:00 +10°C° 0 mm 3 m/s 753 mmHg 67%
    09:00 +11°C° 0 mm 3 m/s 753 mmHg 62%
    10:00 +13°C° 0 mm 4 m/s 752 mmHg 57%
    11:00 +14°C° 0 mm 4 m/s 752 mmHg 53%
    12:00 +15°C° 0 mm 4 m/s 752 mmHg 51%
    13:00 +15°C° 0 mm 4 m/s 752 mmHg 50%
    14:00 +17°C° 0 mm 4 m/s 751 mmHg 49%
    15:00 +17°C° 0 mm 3 m/s 751 mmHg 54%
    16:00 +16°C° 0 mm 3 m/s 751 mmHg 59%
    17:00 +16°C° 0 mm 2 m/s 751 mmHg 64%
    18:00 +14°C° 0 mm 3 m/s 751 mmHg 65%
    19:00 +12°C° 0 mm 3 m/s 751 mmHg 65%
    20:00 +11°C° 0 mm 3 m/s 752 mmHg 65%
    21:00 +9°C° 0 mm 3 m/s 752 mmHg 71%
    22:00 +8°C° 0 mm 3 m/s 752 mmHg 77%
    23:00 +6°C° 0 mm 2 m/s 752 mmHg 83%
    Voir plus